User: anonymous   Login
Location: Ponte Samoggia
(44.5667°N, 11.1333°E)
Time: 01:37:39
(UTC+00:00)
Language:

Cosmos 1975 Rocket - Orbit

View from above orbital plane
View from above orbital plane
View from above satellite
View from above satellite

Ground track
Ground track

The orbit data is extracted from the following two-line orbital elements,

1 19574U 88093B   22225.43011188  .00000267  00000-0  29382-4 0  9996
2 19574  82.5333 184.0720 0022368  30.4801  90.5227 14.83531174807536
Epoch (UTC): 13 August 2022 10:19:21
Eccentricity: 0.0022368
inclination: 82.5333°
perigee height: 602 km
apogee height: 634 km
right ascension of ascending node: 184.0720°
argument of perigee: 30.4801°
revolutions per day: 14.83531174
mean anomaly at epoch: 90.5227°
orbit number at epoch: 80753

The dashed part of the orbit path shows where the satellite is in the earth's shadow,  

DLR